Location: Bozhöyük
(36.7589°N, 30.0092°E)
Time: 01:34:33
(UTC+00:00)

Daily predictions for brighter satellites

Satellite Brightness Start Highest point End
(mag) Time Altitude Azimuth Time Altitude Azimuth Time Altitude Azimuth
CZ-3 Stage 3 4.0 01:27:11 65° SSE 01:27:11 65° SSE 01:52:51 10° E
CZ-3 R/B 3.8 01:45:41 52° WSW 01:49:55 58° SSW 01:59:36 10° SE
Cosmos 2082 Rocket 3.2 02:07:34 41° ENE 02:07:34 41° ENE 02:11:30 10° NNE
Cosmos 2279 Rocket 3.9 02:29:48 56° N 02:31:16 86° E 02:37:31 10° S
Cosmos 1980 Rocket 2.4 02:32:25 59° NNE 02:33:12 66° ENE 02:38:44 10° SSE
Cosmos 2098 Rocket 3.7 02:38:52 47° N 02:40:41 84° E 02:46:26 10° S
Cosmos 220 Rocket 4.1 02:51:55 63° SE 02:52:11 65° ESE 02:56:14 10° NNE
Tiangong -0.1 02:55:00 27° ENE 02:55:00 27° ENE 02:56:48 10° E
SJ-11-01 4.1 02:50:23 10° N 02:55:06 81° WNW 02:59:45 10° SSW
Cosmos 372 Rocket 4.4 02:53:44 26° N 02:56:27 59° ENE 03:01:25 10° SSE
Cosmos 990 Rocket 4.4 03:05:11 41° SW 03:05:11 41° SW 03:09:23 10° S
Cosmos 2142 Rocket 4.4 03:02:15 16° NNW 03:07:23 65° W 03:13:28 10° S
Cosmos 1606 Rocket 3.8 03:06:09 16° N 03:09:36 69° E 03:13:57 10° SSE
SL-8 R/B 3.7 03:12:41 52° W 03:13:35 64° SW 03:18:17 10° SE
Cosmos 1697 Rocket 4.3 03:17:16 17° SW 03:17:16 17° SW 03:19:06 10° SSW
Helios 1A Rocket 3.7 03:16:12 10° SE 03:19:21 40° ENE 03:22:13 12° N
Cosmos 1092 Rocket 4.4 03:16:44 10° S 03:22:57 65° E 03:29:08 10° NNE
Meteor 2-3 Rocket 3.7 03:19:34 10° S 03:25:20 85° W 03:31:04 10° N
Cosmos 2322 Rocket 4.3 03:22:51 10° N 03:27:14 22° ENE 03:31:35 10° ESE
Cosmos 489 Rocket 4.5 03:21:06 10° SSW 03:27:17 56° WNW 03:33:27 10° N
Nadezhda 4 Rocket 4.1 03:21:50 10° SSW 03:27:59 54° W 03:34:08 10° N
Cosmos 1428 Rocket 4.4 03:23:02 10° SSW 03:29:08 64° W 03:35:22 10° N
NOSS 2-1 (D) 3.8 03:32:00 22° NNW 03:34:32 70° ENE 03:39:49 10° SE
Cosmos 1726 Rocket 3.3 03:31:42 10° N 03:36:03 82° W 03:40:13 10° S
USA 59 Rocket 0.1 03:34:44 22° NNW 03:37:17 82° ENE 03:42:44 10° SSE
COSMOS 2406 3.4 03:33:04 10° SW 03:38:30 47° WNW 03:43:58 10° N
CZ-4 R/B 4.0 03:34:53 10° N 03:39:17 44° WNW 03:43:39 10° SW
Cosmos 2237 4.2 03:33:42 11° NNW 03:39:19 90° ENE 03:45:00 10° SSE
SL-24 R/B - RUBIN 2 4.2 03:38:33 29° W 03:39:46 34° WSW 03:43:47 10° S
Cosmos 841 Rocket 4.0 03:35:16 10° SW 03:40:02 36° WNW 03:44:51 10° N
NOSS 3-1 (C) 4.4 03:34:05 11° NNW 03:41:34 76° ENE 03:50:47 10° SE
NOSS 2-1 (E) 3.9 03:39:18 17° NNW 03:42:16 64° ENE 03:47:29 10° SE
Cosmos 2195 Rocket 4.5 03:36:14 10° SSW 03:42:24 63° W 03:48:39 10° N
BREEZE-M DEB (TANK) 3.3 03:44:06 19° WNW 03:48:32 74° SW 03:51:45 10° SE
Cosmos 1892 Rocket 3.7 03:45:35 10° SSW 03:49:45 47° W 03:54:00 10° N
Cosmos 2082 Rocket 3.3 03:49:32 20° WNW 03:50:25 20° NW 03:54:32 10° N
Cosmos 1933 4.2 03:52:07 22° WNW 03:53:22 26° W 03:56:33 10° SSW
SL-16 R/B 2.6 03:48:26 10° NNW 03:54:05 65° ENE 03:59:41 10° SSE
NOSS 2-1 (C) 3.6 03:58:58 14° NW 04:02:18 68° WSW 04:07:42 10° SSE
COSMOS 2455 3.2 03:58:09 11° NW 04:03:39 47° WSW 04:09:21 10° S
Meteor 2-20 4.4 03:58:51 10° NNW 04:04:53 66° W 04:10:52 10° S
IRS-1D 4.5 04:01:02 10° NNW 04:04:58 24° WNW 04:08:57 10° WSW
Cosmos 1898 Rocket 4.2 04:02:31 10° NW 04:07:14 35° W 04:11:57 10° SSW
CZ-2D R/B 4.5 04:05:55 10° NNE 04:08:54 37° E 04:11:51 10° SSE
Cosmos 405 Rocket 2.3 04:09:39 10° S 04:12:51 82° E 04:16:07 10° N
USA 267 4.3 04:09:01 10° NE 04:15:19 49° SE 04:21:34 10° SSW
Cosmos 1980 Rocket 3.8 04:14:14 11° WNW 04:16:29 14° W 04:19:16 10° SW
Cosmos 2278 3.8 04:11:29 10° NNW 04:17:10 88° ENE 04:22:48 10° SSE
COSMO-SKYMED 1 3.4 04:13:57 10° SSW 04:17:31 28° W 04:21:07 10° NW
Cosmos-2242 3.0 04:16:52 10° NNW 04:21:00 57° W 04:25:06 10° S
ATLAS 2AS CENTAUR R/B 3.3 04:17:22 10° SSW 04:24:24 65° ESE 04:31:16 10° NE
Delta 2 Rocket 4.0 04:21:54 10° W 04:24:34 27° SSW 04:27:10 10° SE
Cosmos 1602 Rocket 4.3 04:20:18 10° S 04:24:39 60° E 04:29:01 10° NNE
Meteor 2-2 Rocket 4.3 04:19:28 10° NNW 04:25:05 61° W 04:30:47 10° S
Meteor 2-20 Rocket 4.3 04:21:23 10° NNW 04:27:01 60° W 04:32:36 10° S
Cosmos 2058 Rocket 3.4 04:23:07 10° NNW 04:27:20 44° W 04:31:30 10° SSW
SL-08 ROCKET BODY 4.3 04:23:29 10° S 04:29:20 75° W 04:35:11 10° N
Cosmos 1484 Rocket 3.7 04:27:25 10° NNW 04:30:05 21° WNW 04:32:42 10° WSW
Tiangong -1.6 04:27:37 10° WNW 04:30:46 53° SSW 04:33:55 10° SE
BREEZE-M DEB (TANK) 2.6 04:28:22 10° WSW 04:30:55 47° NNW 04:33:23 10° NE
Cosmos 1937 Rocket 4.4 04:27:34 10° NW 04:31:51 27° W 04:36:07 10° SSW
Cosmos 2285 Rocket 4.4 04:25:56 10° NNW 04:32:18 69° ENE 04:38:40 10° SSE
CORIOLIS 4.1 04:28:16 10° N 04:33:38 76° WNW 04:39:01 10° SSW
IRIDIUM 104 4.4 04:29:20 10° SSW 04:34:26 58° W 04:39:35 10° N
ARIANE 5 R/B 2.8 04:30:57 10° NNE 04:36:12 82° ESE 04:41:24 10° SSW
